User: anonymous   Login
Location: Nelson
(41.2830°S, 173.2830°E)
Time: 15:42:36
(UTC+13:00)
Language:

Cosmos 1709 Rocket - Orbit

View from above orbital plane
View from above orbital plane
View from above satellite
View from above satellite

Ground track
Ground track

The orbit data is extracted from the following two-line orbital elements,

1 16369U 85116B   19081.88906973 -.00000050  00000-0 -65809-4 0  9994
2 16369  82.9374 229.4381 0037039 155.4159 314.5103 13.76833448670558
Epoch (UTC): 22 March 2019 21:20:15
Eccentricity: 0.0037039
inclination: 82.9374°
perigee height: 948 km
apogee height: 1002 km
right ascension of ascending node: 229.4381°
argument of perigee: 155.4159°
revolutions per day: 13.76833448
mean anomaly at epoch: 314.5103°
orbit number at epoch: 67055

The dashed part of the orbit path shows where the satellite is in the earth's shadow,  

DLR